GFSGBSN_850_thetae_138.txt.gz
Theta_e
311 312 312 311 311 311 311 311 311 312 312 313 313 314 314 314 314 315 316 317 319 321 318 319 315 317 319 321 326 327 322 317 317 318 321 323 329 333 333 332 332 333 333 332 330 329 332
307 307 308 308 308 308 309 309 309 310 311 310 310 311 313 313 314 314 315 317 320 322 319 318 315 317 319 327 330 325 322 317 320 321 322 325 331 331 331 331 333 332 333 332 329 333 337
305 305 305 306 306 306 307 307 307 308 309 309 309 310 311 312 313 313 315 317 322 323 319 317 316 317 321 327 329 321 317 318 321 322 322 329 330 330 330 332 330 333 334 332 330 333 338
304 304 304 305 305 305 306 306 306 307 307 308 309 309 310 311 312 312 315 318 324 321 319 317 316 318 325 323 328 322 320 320 320 321 322 328 329 330 331 330 332 334 334 334 331 332 336
303 303 304 304 304 305 305 305 306 306 307 307 308 309 309 310 312 312 314 320 324 322 319 319 317 322 328 329 328 323 322 322 321 321 324 328 328 330 330 333 334 333 334 333 331 331 334
303 303 303 303 304 304 304 305 305 306 306 307 307 308 309 309 311 312 313 323 325 324 322 321 317 326 329 330 328 323 322 321 320 323 326 328 329 331 333 334 333 333 332 332 332 332 332
303 303 303 303 303 304 304 304 305 305 306 306 307 308 309 309 310 311 313 324 325 326 326 328 322 326 330 329 325 323 322 323 322 325 329 329 330 332 333 332 333 333 332 333 332 332 332
303 303 303 303 303 303 304 304 305 305 306 306 307 307 309 309 310 311 313 325 324 322 327 327 326 324 327 329 327 325 326 327 327 329 329 330 329 330 330 331 332 332 333 333 332 331 332
302 302 303 303 303 303 304 304 305 305 306 306 307 307 308 309 310 311 318 320 324 323 328 327 325 325 327 327 328 328 328 329 329 330 330 330 331 332 331 332 332 333 333 333 333 332 333
302 302 302 302 303 303 304 304 305 305 306 306 307 307 308 309 311 313 317 324 324 324 330 329 327 327 327 328 328 328 328 328 329 330 330 332 330 329 330 331 332 333 332 332 332 334 334
302 302 302 302 303 303 304 304 305 305 306 306 307 307 308 308 309 311 318 325 324 323 330 328 327 326 327 328 329 327 328 328 330 331 331 332 331 330 331 332 332 333 331 332 332 333 334
302 302 302 303 303 304 304 305 305 305 306 306 307 307 308 309 310 310 312 318 323 330 329 328 327 327 329 328 328 327 328 329 329 331 331 331 328 330 332 331 331 331 333 333 332 332 333
303 302 302 303 303 304 304 304 305 305 306 306 307 307 308 309 312 311 311 321 330 331 328 329 327 328 330 330 328 329 330 330 330 331 331 330 330 330 330 331 331 332 333 334 334 333 333
304 303 303 303 303 304 304 304 304 305 305 306 307 308 309 309 310 310 313 329 331 329 328 328 328 328 330 330 329 329 330 331 330 331 331 332 331 330 331 332 332 332 332 333 335 334 335
305 304 304 303 303 303 304 303 304 305 305 305 307 308 309 310 310 310 315 330 331 330 328 329 328 328 330 330 330 328 330 330 331 330 332 332 331 331 331 331 332 332 332 333 334 333 332
304 304 304 304 303 303 303 303 304 304 305 305 306 307 310 309 310 310 319 324 329 328 328 326 329 329 330 330 330 330 329 330 330 330 330 331 332 330 329 330 330 332 333 332 333 336 335
305 305 304 304 304 303 303 303 303 304 304 305 307 310 314 316 313 315 319 322 325 326 327 327 329 330 330 330 330 330 330 329 330 329 330 330 331 332 331 331 331 332 332 333 333 334 334
304 304 304 303 304 304 303 303 303 303 304 305 309 316 314 316 316 315 318 321 322 323 324 326 325 328 330 330 330 330 330 330 328 329 329 330 330 334 331 331 331 332 332 333 333 337 334
304 304 303 303 303 304 302 303 303 303 303 303 311 312 316 315 320 318 319 320 321 322 323 324 326 326 328 330 331 330 330 329 326 329 329 330 329 332 333 332 331 332 333 333 334 335 336
303 302 303 303 303 304 302 302 303 303 303 303 312 320 318 316 320 323 318 320 320 319 322 322 324 326 328 328 330 331 330 329 327 328 327 330 330 332 333 332 332 333 332 333 333 335 334
302 302 302 302 303 303 303 302 303 303 303 303 314 319 319 323 321 323 324 322 320 320 321 322 322 323 328 330 330 331 330 331 330 327 327 330 333 333 331 331 331 331 332 332 333 333 334
302 302 302 302 302 303 303 302 304 303 302 307 312 316 317 319 321 323 319 324 323 321 324 323 324 323 323 330 331 331 332 333 333 331 332 332 337 336 332 331 330 330 330 331 333 332 333
302 302 302 302 302 303 303 302 304 303 303 306 308 309 312 317 322 323 323 324 324 324 324 326 327 328 327 327 328 329 330 332 334 334 335 334 337 338 334 333 332 333 332 332 333 333 333
300 302 302 302 303 303 302 302 304 303 303 305 306 307 312 315 319 323 321 321 323 324 326 325 326 329 326 324 325 327 329 330 332 333 334 338 339 336 334 336 336 333 332 331 332 332 332
301 301 302 302 302 302 302 303 304 302 304 305 305 308 312 314 314 319 320 321 321 321 322 325 324 323 323 326 331 332 331 331 331 331 332 334 337 333 334 335 333 332 332 331 332 333 332
302 302 301 302 302 303 303 303 303 302 304 303 305 306 309 313 313 313 317 318 323 324 324 324 322 323 323 329 331 333 330 330 331 330 330 332 337 333 333 331 332 331 332 330 331 333 333
303 303 302 302 302 303 303 302 303 303 303 303 305 304 308 312 312 313 315 318 318 320 324 324 322 325 324 330 330 330 328 330 331 331 332 332 333 332 332 333 330 332 331 329 333 335 333
302 302 303 303 303 302 302 301 302 303 303 303 305 304 306 309 310 311 312 314 315 318 323 320 323 325 328 330 330 330 330 330 331 331 332 332 333 331 332 333 333 330 330 332 334 332 332
300 301 302 304 304 302 302 302 302 303 303 303 304 303 304 305 309 309 309 310 310 312 314 317 320 323 323 329 329 330 329 330 330 332 328 333 333 332 331 333 331 330 331 329 331 332 331

GFSGBSN_850_thetae_141.txt.gz
Theta_e
308 308 309 308 308 309 309 310 310 310 312 312 312 312 313 314 314 314 315 316 318 321 320 319 316 316 319 326 329 327 325 318 318 321 324 325 328 334 336 335 334 335 333 332 331 331 337
305 305 306 306 306 307 307 307 308 309 309 309 310 311 311 312 314 314 314 316 318 322 322 319 315 316 320 330 333 327 321 318 322 324 323 324 329 335 335 335 335 333 333 332 331 333 336
304 305 305 305 305 305 306 306 307 307 308 308 309 309 311 311 312 313 314 315 320 324 322 319 316 316 328 330 331 325 323 322 322 323 324 325 332 333 334 335 334 333 334 333 332 334 337
303 304 304 304 304 305 305 305 306 306 307 307 308 309 309 310 311 312 313 314 322 323 319 318 316 318 331 327 329 322 321 322 323 324 324 327 331 333 334 334 334 334 335 333 333 335 335
303 303 303 304 304 304 304 305 305 306 306 307 308 308 309 310 311 312 313 314 323 325 319 319 319 326 330 325 329 324 323 322 322 323 324 328 329 333 334 336 335 334 334 335 332 334 335
303 303 303 303 304 304 304 305 305 305 306 306 307 308 309 309 311 312 312 314 324 324 323 320 322 330 331 331 329 325 324 324 323 324 326 328 329 334 336 336 336 334 335 334 333 333 334
304 304 304 304 304 304 304 304 305 305 305 306 306 308 308 309 310 311 312 322 331 331 330 330 327 327 331 331 328 325 324 324 323 325 328 328 330 333 335 335 335 335 334 333 334 333 333
303 303 303 303 304 304 304 305 305 305 306 306 307 307 308 309 310 311 312 328 328 324 328 330 329 325 331 330 327 325 324 324 324 327 329 331 331 332 333 334 334 334 333 333 334 334 333
304 303 303 303 303 304 304 305 305 306 306 306 307 307 308 309 310 312 319 320 324 324 328 329 329 327 328 330 328 326 323 326 326 328 330 332 331 332 331 332 333 334 334 335 334 333 333
305 304 303 303 303 303 304 304 305 306 306 306 307 307 308 309 313 316 317 323 324 323 329 330 330 328 327 329 330 327 325 328 330 330 331 332 333 332 332 332 333 334 334 334 334 334 334
306 305 303 303 303 304 304 304 305 305 306 306 306 307 308 308 310 313 319 321 320 325 331 330 330 328 327 330 330 330 327 329 332 332 332 331 333 333 332 333 333 335 334 333 333 334 335
308 306 304 303 303 304 304 304 305 305 306 306 307 307 308 311 312 311 315 318 323 331 329 330 329 329 329 330 331 330 329 329 330 332 332 333 332 332 332 333 333 334 334 333 333 333 334
307 307 306 304 303 303 304 304 304 305 305 306 307 307 307 308 314 314 314 320 330 331 329 330 330 330 329 331 332 332 332 332 332 333 334 333 332 332 332 333 333 333 333 335 336 335 334
306 306 306 306 303 303 303 304 304 304 305 306 307 308 309 310 312 311 315 324 331 330 331 330 330 329 330 331 331 331 332 332 332 333 334 333 333 331 332 333 333 333 334 335 339 337 338
306 305 305 305 305 303 303 303 304 304 305 305 307 310 313 313 310 314 316 324 330 331 330 330 331 329 329 330 331 331 331 332 332 333 333 333 333 332 332 333 334 334 334 334 335 336 337
305 305 305 305 305 304 303 303 304 304 305 305 306 312 314 316 316 314 319 320 327 330 330 330 330 330 331 330 331 331 332 332 332 332 333 334 334 333 332 332 333 334 334 333 334 337 339
306 305 305 304 304 305 303 303 303 304 304 305 309 315 317 316 317 315 318 320 322 327 330 330 330 331 331 331 332 332 331 331 332 332 332 333 334 334 333 332 333 332 334 335 335 336 337
305 304 304 304 303 304 303 303 303 303 304 305 310 318 317 317 318 317 319 320 322 324 328 329 330 330 333 332 332 332 333 332 331 332 332 332 333 335 333 333 332 333 333 333 334 336 336
303 303 303 303 303 303 303 303 302 303 303 303 311 314 316 318 321 319 320 320 322 324 326 327 328 329 331 333 333 332 332 332 330 331 333 332 332 333 336 334 332 332 334 334 334 336 338
303 302 303 302 302 302 303 304 302 303 303 303 312 319 316 319 319 323 323 321 321 322 325 325 327 328 330 332 333 334 332 332 331 330 330 331 332 333 334 335 334 333 332 333 334 337 336
302 302 303 302 303 303 303 304 302 303 303 303 312 317 323 326 322 320 324 324 322 323 323 323 326 326 329 332 333 333 334 332 330 326 330 331 333 332 332 334 334 333 333 332 334 334 335
302 302 302 302 303 303 303 303 302 303 303 308 312 317 318 320 322 326 321 325 324 322 323 323 324 325 326 331 333 333 334 334 333 332 331 331 334 334 333 332 333 332 333 334 333 333 333
302 302 301 302 303 302 303 303 302 304 303 310 311 310 312 314 320 324 326 325 325 325 323 324 325 326 325 327 330 333 333 333 334 334 334 333 333 336 336 334 333 333 332 332 332 332 333
300 301 301 301 302 303 302 302 303 305 303 307 309 309 311 315 317 321 323 324 324 326 326 325 326 329 329 329 329 330 330 333 335 335 334 335 340 338 337 335 337 335 334 334 333 333 334
300 301 301 302 302 303 302 302 303 304 303 306 308 309 312 316 316 319 322 324 324 325 326 328 327 328 329 329 329 330 332 333 335 335 336 335 338 337 336 335 336 336 336 334 334 334 333
303 303 303 302 302 302 303 303 304 303 303 304 308 308 310 314 316 316 320 322 325 325 325 325 326 327 328 328 328 330 332 333 334 333 334 334 337 338 336 336 336 335 336 333 333 335 336
301 301 303 303 303 302 302 303 302 303 303 303 306 308 309 312 313 315 316 321 322 325 327 326 326 327 328 329 328 328 329 331 332 334 334 334 336 337 335 335 334 336 334 332 335 337 336
299 300 301 302 303 303 303 303 302 302 303 303 307 307 307 310 312 313 313 317 319 321 327 326 327 328 329 330 329 329 329 330 331 331 334 335 334 333 332 333 333 334 334 333 339 337 336
299 299 299 301 301 304 303 302 302 303 303 303 306 307 306 307 310 310 310 312 314 316 317 321 325 329 328 329 330 330 330 333 333 332 335 335 334 334 338 335 337 333 337 337 336 336 335

GFSGBSN_850_thetae_144.txt.gz
Theta_e
306 306 307 307 307 308 308 308 308 309 310 311 311 312 313 314 315 315 315 315 315 319 322 319 319 316 318 324 328 333 325 320 319 319 326 329 327 332 337 336 336 336 333 333 332 337 338
305 305 305 305 306 306 307 307 307 307 308 308 309 311 311 313 314 314 315 315 315 322 324 320 317 316 318 332 334 332 322 320 319 321 329 325 328 332 337 335 335 334 333 333 332 335 337
304 304 305 305 305 305 306 306 306 307 307 307 308 309 310 311 313 314 314 314 315 323 322 319 316 315 329 331 333 330 323 320 321 324 326 326 327 332 335 336 335 333 333 332 333 334 338
304 304 304 304 304 305 305 305 306 306 306 307 307 308 309 310 311 313 314 314 315 324 320 319 316 316 331 330 331 326 324 322 323 324 325 326 328 334 335 336 334 334 335 332 333 335 338
305 305 304 304 304 304 305 305 305 305 306 306 307 308 309 309 310 312 313 314 316 324 323 319 318 320 330 329 330 324 324 324 324 325 325 326 330 334 335 336 334 334 335 334 333 335 337
304 304 304 305 305 305 305 305 305 306 306 306 307 307 308 309 310 312 313 315 316 324 324 320 324 331 329 332 330 325 323 323 324 325 326 327 330 333 335 335 336 335 335 335 334 333 335
306 305 304 304 304 304 305 305 306 306 306 307 307 307 308 309 310 311 314 315 333 329 330 330 327 328 332 331 330 326 325 325 324 325 327 328 329 332 335 335 336 336 335 336 334 333 334
306 306 305 304 304 304 304 305 305 306 307 307 307 308 308 309 310 311 312 318 330 328 328 332 331 329 331 332 330 326 325 326 325 326 327 330 329 331 334 335 335 335 335 334 334 334 333
308 307 306 305 304 304 304 305 305 305 307 307 307 308 309 309 310 314 321 323 322 324 327 328 329 330 328 332 330 327 326 325 326 327 328 330 331 332 332 333 334 334 334 334 334 334 333
308 308 308 306 304 304 304 305 305 305 306 307 307 308 309 310 312 320 318 325 323 325 328 328 329 330 328 331 330 328 326 325 328 327 329 330 333 332 332 332 332 332 334 335 335 334 333
308 309 309 308 306 304 304 304 305 305 306 306 306 307 308 307 310 313 318 320 323 326 330 328 329 330 329 329 331 331 327 326 330 329 329 331 332 332 332 332 332 333 334 334 335 335 335
307 307 308 308 308 307 304 304 305 305 306 306 306 307 307 308 312 312 314 317 322 329 329 330 330 330 330 329 331 330 328 326 329 332 332 332 332 334 333 332 333 334 335 335 333 334 335
306 306 306 306 307 307 306 304 304 305 305 306 306 307 307 308 311 316 316 317 326 329 328 330 331 330 329 330 331 332 331 329 331 332 333 333 333 334 332 332 333 334 335 335 334 333 334
306 306 306 306 306 307 307 304 303 304 305 306 307 308 309 310 311 313 314 321 327 328 329 330 331 331 329 330 331 331 332 331 331 332 333 333 333 334 333 333 334 333 334 335 341 339 337
304 305 306 306 305 306 306 306 303 303 305 305 307 309 313 316 312 314 316 320 326 328 329 330 331 331 330 330 331 332 332 333 331 332 335 334 333 334 332 333 334 334 334 334 335 336 339
305 304 305 305 305 304 304 305 303 303 304 305 306 309 313 316 317 315 318 319 323 326 329 331 331 332 331 330 330 331 332 333 332 332 333 334 334 334 333 332 333 334 334 333 334 340 341
304 304 304 304 304 303 303 303 302 302 304 304 308 316 319 316 318 316 317 319 321 323 326 329 331 331 332 331 330 331 332 332 332 332 332 333 334 335 334 332 332 333 334 335 334 335 336
304 303 303 303 303 303 303 302 302 302 303 305 310 316 318 318 320 319 318 318 320 323 323 326 331 331 331 332 332 331 331 332 332 332 332 332 333 336 334 334 333 333 334 336 338 341 338
303 303 303 303 303 303 303 303 303 303 303 304 311 314 317 320 321 321 320 319 320 321 323 325 329 331 331 332 334 332 332 333 332 332 334 335 334 334 336 334 333 332 333 333 334 335 341
304 302 302 302 303 303 303 303 303 303 304 304 310 317 317 318 320 322 322 321 321 320 322 324 327 330 330 330 332 335 332 333 333 332 331 333 333 337 335 337 335 335 332 333 334 338 337
302 302 303 303 303 303 303 303 303 303 304 304 310 315 318 322 321 323 322 323 324 322 322 323 325 327 328 330 331 333 334 334 333 332 333 333 339 336 332 333 335 334 333 333 334 335 337
301 301 302 302 302 302 303 303 304 303 304 306 310 315 315 317 320 325 325 322 324 325 323 323 325 326 327 330 331 332 334 335 335 332 332 332 337 336 333 332 333 334 335 333 332 333 334
301 301 301 301 301 302 302 303 302 303 305 308 313 313 313 315 317 319 324 326 322 325 326 324 325 326 326 327 328 331 333 334 335 335 336 334 336 339 337 333 333 334 335 334 335 335 334
300 301 300 301 302 302 302 303 302 302 305 306 309 311 312 315 316 318 320 324 326 325 327 326 324 326 326 328 328 328 331 334 334 335 333 339 345 339 335 339 339 334 334 334 333 334 334
300 301 302 302 302 302 302 303 303 303 304 304 307 310 311 315 315 317 319 321 324 325 326 326 328 327 331 331 331 331 330 334 335 335 335 334 340 335 338 336 336 335 336 335 334 335 334
301 302 302 302 303 303 303 302 303 304 304 303 306 309 311 312 315 315 318 321 325 327 327 326 328 329 329 330 330 336 331 333 335 336 337 335 340 338 338 337 340 339 339 336 336 339 335
301 301 301 301 302 302 303 303 303 303 302 304 306 307 309 311 312 314 318 318 321 325 327 327 327 327 327 329 329 329 329 331 335 337 338 338 338 340 341 339 336 339 336 335 338 340 337
301 300 299 300 301 303 303 304 304 303 302 303 306 307 308 309 310 312 314 315 318 321 325 327 328 327 328 327 328 327 328 330 334 338 341 339 338 338 340 341 341 336 335 336 345 339 337
300 300 299 299 299 301 302 304 302 302 303 303 306 307 308 307 308 309 309 311 312 315 318 320 325 329 329 330 328 329 329 329 335 336 337 340 337 338 339 342 344 340 342 340 339 339 338

GFSGBSN_850_thetae_147.txt.gz
Theta_e
305 305 305 306 306 306 307 307 308 308 309 310 310 311 312 313 314 314 315 316 316 317 322 323 319 317 316 320 321 328 326 326 323 320 320 323 331 330 326 331 334 334 330 333 334 340 340
304 304 305 305 305 306 306 306 306 307 307 308 309 310 310 311 313 313 314 315 316 317 323 323 319 316 315 327 334 335 330 322 321 319 320 324 329 327 328 331 333 332 332 331 332 339 341
306 305 304 304 305 305 305 305 306 306 306 307 308 309 310 310 311 313 313 315 315 317 323 320 317 315 317 322 334 332 325 321 319 319 321 327 326 326 327 331 335 333 332 329 330 337 342
306 305 305 305 305 305 305 305 305 306 306 306 307 308 309 309 310 312 313 314 315 316 323 319 316 315 319 330 330 330 325 320 320 321 327 326 326 326 331 334 335 332 330 326 330 333 342
306 306 305 305 305 305 305 306 306 306 306 307 307 308 309 309 310 311 313 314 316 316 324 319 317 321 327 331 331 328 325 322 323 324 324 325 326 327 332 332 331 330 329 331 330 334 341
307 306 306 305 305 305 305 305 306 307 307 307 308 308 308 309 310 311 314 314 316 316 323 322 322 328 325 331 330 328 325 323 324 324 324 325 328 327 328 329 332 330 331 330 330 332 338
308 308 307 306 305 305 305 305 306 306 307 308 308 309 309 309 310 310 315 314 327 331 325 325 325 326 328 331 330 326 323 323 324 324 323 326 326 326 328 330 333 334 335 332 331 331 332
309 309 309 308 307 306 306 305 306 306 307 307 308 309 310 310 310 310 311 312 321 324 324 327 329 330 329 329 331 326 324 324 324 322 324 324 325 326 330 331 333 333 333 333 332 330 332
307 308 309 309 309 308 307 306 306 306 307 307 307 308 309 310 310 311 317 319 322 321 322 325 326 329 330 330 331 327 325 325 324 323 323 323 326 328 329 329 331 330 331 332 331 331 329
307 307 308 309 309 309 309 308 306 306 306 307 307 307 308 311 311 316 319 318 320 323 324 326 326 327 329 331 331 329 325 326 325 323 324 324 326 328 328 329 329 329 332 332 333 330 329
307 306 307 307 308 309 309 309 308 307 307 307 307 307 308 305 310 313 317 318 320 323 328 327 326 328 330 329 332 331 326 326 324 324 323 324 326 327 330 329 330 329 331 331 333 332 330
307 307 306 306 307 308 309 308 308 308 307 307 307 308 307 308 309 312 313 315 318 324 330 327 327 327 329 328 329 330 327 326 326 325 325 325 329 328 329 332 331 330 330 331 332 328 328
306 305 304 305 306 306 307 308 308 308 307 307 307 309 308 307 311 314 315 317 318 325 327 326 327 327 329 328 327 329 326 325 324 323 326 329 328 328 330 331 330 329 330 331 330 328 329
306 305 305 304 305 305 304 304 306 307 307 306 307 309 310 311 312 310 313 317 322 326 325 327 328 328 328 328 327 328 327 325 324 324 328 330 330 330 331 329 328 329 328 330 335 332 331
306 305 304 304 305 304 304 303 303 305 305 304 307 309 310 312 313 311 315 316 321 324 326 325 326 328 328 328 327 328 329 327 326 325 327 329 331 331 332 330 329 330 330 329 330 331 332
307 306 304 303 303 303 303 303 302 302 303 303 305 307 312 313 314 313 316 317 318 322 324 325 326 328 330 328 327 328 329 330 330 328 327 329 333 330 332 330 329 328 331 329 326 332 336
305 305 304 303 303 303 303 303 303 301 302 303 306 312 315 317 316 316 315 316 317 318 320 322 323 325 328 331 328 327 329 330 331 330 328 328 328 331 331 328 327 328 330 329 327 328 330
305 305 304 303 302 303 303 303 303 303 302 303 308 313 316 317 319 319 317 316 317 317 319 321 321 322 323 327 330 328 328 330 332 331 329 329 327 329 331 331 330 328 328 329 332 335 333
302 303 304 303 302 303 303 303 303 303 303 303 309 311 313 315 318 319 320 319 317 317 318 318 320 322 324 325 332 333 332 331 331 330 330 329 329 329 329 330 329 329 328 330 332 332 331
302 302 302 302 303 303 303 303 303 304 303 303 308 313 316 314 317 320 321 322 321 319 319 319 320 321 322 326 330 331 330 331 332 331 331 332 328 329 329 332 330 331 331 330 328 328 329
302 301 301 301 302 302 302 302 303 303 303 303 309 312 314 316 317 317 320 322 322 322 321 319 319 320 321 324 330 329 329 330 332 331 337 330 329 329 329 330 331 331 331 330 328 330 331
301 301 300 301 301 301 301 302 302 303 302 304 307 310 313 314 315 317 318 322 327 325 322 323 320 321 321 322 329 330 329 330 335 334 331 328 332 333 334 331 330 330 333 331 330 330 332
300 301 299 301 300 301 302 302 303 303 302 305 309 309 311 313 314 315 317 319 320 321 323 322 323 322 322 323 327 327 327 328 330 334 333 329 329 334 332 332 332 332 331 333 331 330 329
299 300 299 301 301 301 302 302 302 303 302 304 305 306 309 313 313 314 315 317 319 320 321 323 323 327 324 324 326 328 328 328 329 331 332 334 336 335 331 334 333 331 333 333 334 332 336
300 299 300 302 302 303 303 302 302 303 303 304 305 306 309 312 313 313 316 316 316 320 325 325 325 329 330 325 330 331 330 330 329 332 333 330 335 334 333 333 336 334 333 336 334 336 339
301 299 300 302 301 301 302 303 303 303 303 304 304 306 307 310 311 312 313 313 317 319 324 327 327 329 328 330 330 333 331 330 333 335 334 333 333 335 334 335 333 334 337 336 336 335 337
301 299 300 301 300 300 301 302 303 303 303 303 303 305 307 308 309 311 311 312 313 315 322 325 321 328 327 329 331 329 327 330 331 335 338 338 336 338 336 334 334 335 336 336 335 339 341
300 299 300 300 299 299 299 301 303 304 304 302 303 305 306 308 308 308 308 309 311 312 316 316 321 327 328 329 330 329 328 327 330 334 340 338 339 337 339 340 341 340 334 338 342 340 340
300 299 299 300 299 299 299 300 302 303 302 302 303 305 306 307 308 308 308 308 309 311 311 313 317 323 327 330 329 330 329 328 329 330 334 339 335 337 339 346 342 341 343 341 338 338 337